TDRS 9                  
1 27389U 02011A   19260.92270209 -.00000286  00000-0  00000+0 0  9998
2 27389   6.9236  69.9779 0017720 257.2057 299.2854  1.00267316 65724
ATLAS 2A CENTAUR R/B    
1 27390U 02011B   19261.38368544  .00011541  00000-0  48138-3 0  9994
2 27390  26.5768 308.8803 4948375 120.8977 296.9305  5.79996714247410